| time (UTC) | temp F | wind direction | speed MPH | gust MPH | rain 1hr in | rain 24hr in | rain mn in | humidity % | barometer mb |
| 20260506155450 | 60 | 91 | 0.0 | 0.0 | 0.00 | 0.00 | 0.00 | 83 | 1021.4 |
| 20260506153617 | 60 | 113 | 0.0 | 0.0 | 0.00 | 0.00 | 0.00 | 83 | 1021.2 |
| 20260506153114 | 60 | 120 | 0.0 | 1.0 | 0.00 | 0.00 | 0.00 | 83 | 1021.4 |
| 20260506152611 | 60 | 141 | 1.0 | 1.0 | 0.00 | 0.00 | 0.00 | 83 | 1021.4 |
| 20260506152109 | 60 | 131 | 0.0 | 1.0 | 0.00 | 0.00 | 0.00 | 83 | 1021.5 |
| 20260506151607 | 60 | 89 | 1.0 | 1.0 | 0.00 | 0.00 | 0.00 | 83 | 1021.3 |
| 20260506151104 | 60 | 113 | 0.0 | 1.0 | 0.00 | 0.00 | 0.00 | 83 | 1021.2 |
| 20260506150601 | 59 | 153 | 2.0 | 2.0 | 0.00 | 0.00 | 0.00 | 83 | 1021.1 |
| 20260506150057 | 59 | 108 | 0.0 | 0.0 | 0.00 | 0.00 | 0.00 | 84 | 1021.2 |
| 20260506145554 | 59 | 112 | 0.0 | 0.0 | 0.00 | 0.00 | 0.00 | 85 | 1021.3 |
| 20260506145052 | 58 | 104 | 0.0 | 0.0 | 0.00 | 0.00 | 0.00 | 85 | 1021.3 |
| 20260506144548 | 58 | 117 | 0.0 | 0.0 | 0.00 | 0.00 | 0.00 | 85 | 1021.2 |
| 20260506144045 | 58 | 99 | 1.0 | 1.0 | 0.00 | 0.00 | 0.00 | 85 | 1021.1 |
| 20260506143543 | 58 | 129 | 1.0 | 1.0 | 0.00 | 0.00 | 0.00 | 85 | 1021.4 |
| 20260506143041 | 58 | 79 | 1.0 | 1.0 | 0.00 | 0.00 | 0.00 | 86 | 1021.3 |
| 20260506142538 | 58 | 113 | 1.0 | 1.0 | 0.00 | 0.00 | 0.00 | 86 | 1021.0 |
| 20260506142037 | 58 | 107 | 0.0 | 0.0 | 0.00 | 0.00 | 0.00 | 86 | 1020.9 |
| 20260506141534 | 58 | 114 | 0.0 | 0.0 | 0.00 | 0.00 | 0.00 | 86 | 1021.0 |
| 20260506141032 | 58 | 118 | 0.0 | 0.0 | 0.00 | 0.00 | 0.00 | 86 | 1020.9 |
| 20260506140529 | 58 | 101 | 0.0 | 0.0 | 0.00 | 0.00 | 0.00 | 87 | 1020.9 |
| 20260506140027 | 58 | 95 | 1.0 | 1.0 | 0.00 | 0.00 | 0.00 | 87 | 1021.0 |
| 20260506135523 | 57 | 112 | 0.0 | 1.0 | 0.00 | 0.00 | 0.00 | 87 | 1020.8 |
| 20260506135019 | 57 | 92 | 0.0 | 1.0 | 0.00 | 0.00 | 0.00 | 87 | 1020.7 |
| 20260506134516 | 57 | 117 | 0.0 | 0.0 | 0.00 | 0.00 | 0.00 | 87 | 1020.7 |
| 20260506134012 | 57 | 116 | 0.0 | 0.0 | 0.00 | 0.00 | 0.00 | 88 | 1020.6 |
| 20260506133510 | 57 | 108 | 0.0 | 0.0 | 0.00 | 0.00 | 0.00 | 88 | 1020.8 |
| 20260506133006 | 57 | 115 | 0.0 | 0.0 | 0.00 | 0.00 | 0.00 | 88 | 1020.5 |
| 20260506132503 | 57 | 118 | 0.0 | 0.0 | 0.00 | 0.00 | 0.00 | 88 | 1020.6 |
| 20260506132001 | 57 | 107 | 0.0 | 0.0 | 0.00 | 0.00 | 0.00 | 88 | 1020.6 |
| 20260506131457 | 57 | 113 | 0.0 | 0.0 | 0.00 | 0.00 | 0.00 | 88 | 1020.6 |
| 20260506130954 | 57 | 102 | 0.0 | 0.0 | 0.00 | 0.00 | 0.00 | 88 | 1020.7 |
| 20260506130450 | 57 | 103 | 0.0 | 0.0 | 0.00 | 0.00 | 0.00 | 88 | 1020.6 |
| 20260506125948 | 57 | 104 | 0.0 | 0.0 | 0.00 | 0.00 | 0.00 | 88 | 1020.5 |
| 20260506125447 | 57 | 104 | 0.0 | 0.0 | 0.00 | 0.00 | 0.00 | 88 | 1020.4 |
| 20260506124944 | 57 | 102 | 0.0 | 0.0 | 0.00 | 0.00 | 0.00 | 88 | 1020.4 |
| 20260506124442 | 57 | 102 | 0.0 | 0.0 | 0.00 | 0.00 | 0.00 | 88 | 1020.2 |
| 20260506123939 | 57 | 96 | 0.0 | 0.0 | 0.00 | 0.00 | 0.00 | 88 | 1020.3 |
| 20260506123438 | 57 | 97 | 0.0 | 0.0 | 0.00 | 0.00 | 0.00 | 88 | 1020.4 |
| 20260506122935 | 57 | 101 | 0.0 | 0.0 | 0.00 | 0.00 | 0.00 | 88 | 1020.4 |
| 20260506122431 | 57 | 101 | 0.0 | 0.0 | 0.00 | 0.00 | 0.00 | 88 | 1020.1 |
| 20260506121930 | 57 | 103 | 0.0 | 0.0 | 0.00 | 0.00 | 0.00 | 88 | 1020.3 |
| 20260506121426 | 57 | 103 | 0.0 | 0.0 | 0.00 | 0.00 | 0.00 | 88 | 1020.3 |
| 20260506120923 | 57 | 103 | 0.0 | 0.0 | 0.00 | 0.00 | 0.00 | 88 | 1020.2 |
| 20260506120421 | 57 | 104 | 0.0 | 0.0 | 0.00 | 0.00 | 0.00 | 88 | 1020.2 |
| 20260506115918 | 57 | 112 | 0.0 | 0.0 | 0.00 | 0.00 | 0.00 | 88 | 1020.3 |
| 20260506115415 | 57 | 116 | 0.0 | 0.0 | 0.00 | 0.00 | 0.00 | 88 | 1020.4 |
| 20260506114914 | 57 | 100 | 0.0 | 0.0 | 0.00 | 0.00 | 0.00 | 88 | 1020.2 |
| 20260506114411 | 57 | 102 | 0.0 | 0.0 | 0.00 | 0.00 | 0.00 | 87 | 1020.1 |
| 20260506113910 | 57 | 107 | 0.0 | 0.0 | 0.00 | 0.00 | 0.00 | 87 | 1020.2 |
| 20260506113407 | 57 | 106 | 0.0 | 0.0 | 0.00 | 0.00 | 0.00 | 87 | 1020.0 |
| 20260506112903 | 57 | 105 | 0.0 | 0.0 | 0.00 | 0.00 | 0.00 | 87 | 1019.9 |
| 20260506112401 | 57 | 99 | 0.0 | 0.0 | 0.00 | 0.00 | 0.00 | 87 | 1020.0 |
| 20260506111858 | 57 | 79 | 0.0 | 1.0 | 0.00 | 0.00 | 0.00 | 86 | 1019.8 |
| 20260506111356 | 57 | 102 | 0.0 | 0.0 | 0.00 | 0.00 | 0.00 | 86 | 1019.9 |
| 20260506110853 | 58 | 88 | 0.0 | 0.0 | 0.00 | 0.00 | 0.00 | 86 | 1019.9 |
| 20260506110350 | 58 | 111 | 0.0 | 0.0 | 0.00 | 0.00 | 0.00 | 86 | 1019.7 |
| 20260506105847 | 58 | 104 | 0.0 | 0.0 | 0.00 | 0.00 | 0.00 | 86 | 1019.8 |
| 20260506105343 | 57 | 108 | 0.0 | 0.0 | 0.00 | 0.00 | 0.00 | 86 | 1019.9 |
| 20260506104841 | 57 | 93 | 1.0 | 1.0 | 0.00 | 0.00 | 0.00 | 86 | 1019.5 |
| 20260506104339 | 58 | 113 | 0.0 | 0.0 | 0.00 | 0.00 | 0.00 | 86 | 1019.5 |
| 20260506103836 | 58 | 127 | 0.0 | 1.0 | 0.00 | 0.00 | 0.00 | 85 | 1019.6 |
| 20260506103334 | 58 | 109 | 0.0 | 0.0 | 0.00 | 0.00 | 0.00 | 85 | 1019.5 |
| 20260506102831 | 58 | 103 | 0.0 | 0.0 | 0.00 | 0.00 | 0.00 | 85 | 1019.5 |
| 20260506102329 | 58 | 107 | 0.0 | 0.0 | 0.00 | 0.00 | 0.00 | 86 | 1019.6 |
| 20260506101826 | 58 | 117 | 0.0 | 0.0 | 0.00 | 0.00 | 0.00 | 86 | 1019.7 |
| 20260506101321 | 58 | 128 | 0.0 | 1.0 | 0.00 | 0.00 | 0.00 | 86 | 1019.4 |
| 20260506100820 | 58 | 99 | 0.0 | 0.0 | 0.00 | 0.00 | 0.00 | 85 | 1019.5 |
| 20260506100318 | 58 | 116 | 0.0 | 0.0 | 0.00 | 0.00 | 0.00 | 85 | 1019.6 |
| 20260506095816 | 58 | 108 | 0.0 | 0.0 | 0.00 | 0.00 | 0.00 | 86 | 1019.4 |
| 20260506095313 | 58 | 116 | 0.0 | 0.0 | 0.00 | 0.00 | 0.00 | 86 | 1019.5 |
| 20260506094809 | 58 | 120 | 0.0 | 0.0 | 0.00 | 0.00 | 0.00 | 86 | 1019.4 |
| 20260506094308 | 58 | 116 | 1.0 | 1.0 | 0.00 | 0.00 | 0.00 | 86 | 1019.1 |
| 20260506093806 | 58 | 126 | 0.0 | 0.0 | 0.00 | 0.00 | 0.00 | 86 | 1019.4 |
| 20260506093302 | 58 | 247 | 1.0 | 1.0 | 0.00 | 0.00 | 0.00 | 86 | 1019.5 |
| 20260506092800 | 58 | 107 | 0.0 | 0.0 | 0.00 | 0.00 | 0.00 | 86 | 1019.3 |
| 20260506092258 | 58 | 111 | 0.0 | 0.0 | 0.00 | 0.00 | 0.00 | 85 | 1019.2 |
| 20260506091755 | 58 | 110 | 0.0 | 0.0 | 0.00 | 0.00 | 0.00 | 85 | 1019.4 |
| 20260506091252 | 58 | 95 | 0.0 | 1.0 | 0.00 | 0.00 | 0.00 | 85 | 1019.2 |
| 20260506090750 | 58 | 112 | 0.0 | 0.0 | 0.00 | 0.00 | 0.00 | 85 | 1019.5 |
| 20260506090247 | 58 | 123 | 1.0 | 1.0 | 0.00 | 0.00 | 0.00 | 85 | 1019.1 |
| 20260506085744 | 58 | 93 | 0.0 | 0.0 | 0.00 | 0.00 | 0.00 | 85 | 1019.5 |
| 20260506085240 | 58 | 107 | 0.0 | 0.0 | 0.00 | 0.00 | 0.00 | 85 | 1019.6 |
| 20260506084737 | 58 | 99 | 0.0 | 0.0 | 0.00 | 0.00 | 0.00 | 85 | 1019.3 |
| 20260506084233 | 58 | 97 | 0.0 | 1.0 | 0.00 | 0.00 | 0.00 | 85 | 1019.4 |
| 20260506083730 | 58 | 100 | 0.0 | 1.0 | 0.00 | 0.00 | 0.00 | 85 | 1019.3 |
| 20260506083228 | 58 | 151 | 1.0 | 1.0 | 0.00 | 0.00 | 0.00 | 84 | 1019.4 |
| 20260506082725 | 58 | 94 | 0.0 | 0.0 | 0.00 | 0.00 | 0.00 | 85 | 1019.4 |
| 20260506082220 | 58 | 92 | 0.0 | 0.0 | 0.00 | 0.00 | 0.00 | 85 | 1019.5 |
| 20260506081719 | 58 | 114 | 0.0 | 0.0 | 0.00 | 0.00 | 0.00 | 85 | 1019.5 |
| 20260506081216 | 58 | 110 | 0.0 | 0.0 | 0.00 | 0.00 | 0.00 | 85 | 1019.4 |
| 20260506080714 | 58 | 168 | 0.0 | 1.0 | 0.00 | 0.00 | 0.00 | 85 | 1019.4 |
| 20260506080210 | 58 | 129 | 1.0 | 1.0 | 0.00 | 0.00 | 0.00 | 85 | 1019.4 |
| 20260506073154 | 58 | 125 | 1.0 | 1.0 | 0.00 | 0.00 | 0.00 | 85 | 1019.2 |
| 20260506072650 | 58 | 111 | 0.0 | 0.0 | 0.00 | 0.00 | 0.00 | 85 | 1019.1 |
| 20260506072148 | 58 | 125 | 0.0 | 0.0 | 0.00 | 0.00 | 0.00 | 85 | 1019.2 |
| 20260506071646 | 58 | 158 | 1.0 | 1.0 | 0.00 | 0.00 | 0.00 | 85 | 1019.2 |
| 20260506071143 | 58 | 112 | 0.0 | 0.0 | 0.00 | 0.00 | 0.00 | 85 | 1018.9 |
| 20260506070640 | 59 | 107 | 0.0 | 0.0 | 0.00 | 0.00 | 0.00 | 86 | 1019.0 |
| 20260506070137 | 59 | 114 | 0.0 | 0.0 | 0.00 | 0.03 | 0.03 | 85 | 1018.9 |
| 20260506062115 | 59 | 113 | 0.0 | 0.0 | 0.00 | 0.03 | 0.03 | 85 | 1018.5 |
| 20260506061610 | 59 | 212 | 2.0 | 3.0 | 0.00 | 0.03 | 0.03 | 86 | 1018.3 |
| 20260506061108 | 58 | 117 | 0.0 | 1.0 | 0.00 | 0.03 | 0.03 | 86 | 1018.4 |
| 20260506060606 | 58 | 122 | 0.0 | 0.0 | 0.00 | 0.03 | 0.03 | 86 | 1018.3 |
| 20260506051029 | 59 | 57 | 0.0 | 1.0 | 0.00 | 0.03 | 0.03 | 85 | 1018.0 |
| 20260506050527 | 59 | 143 | 1.0 | 1.0 | 0.00 | 0.03 | 0.03 | 84 | 1018.1 |
| 20260506045017 | 60 | 98 | 0.0 | 0.0 | 0.00 | 0.03 | 0.03 | 83 | 1017.9 |
| 20260506044516 | 60 | 112 | 0.0 | 0.0 | 0.00 | 0.03 | 0.03 | 83 | 1017.6 |
| 20260506044012 | 60 | 113 | 1.0 | 1.0 | 0.00 | 0.03 | 0.03 | 83 | 1017.7 |
| 20260506043509 | 60 | 119 | 1.0 | 2.0 | 0.00 | 0.03 | 0.03 | 82 | 1017.3 |
| 20260506043008 | 61 | 160 | 1.0 | 2.0 | 0.00 | 0.03 | 0.03 | 81 | 1017.2 |
| 20260506042507 | 61 | 97 | 1.0 | 1.0 | 0.00 | 0.03 | 0.03 | 81 | 1017.3 |
| 20260506042004 | 61 | 155 | 1.0 | 2.0 | 0.00 | 0.03 | 0.03 | 80 | 1017.4 |
| 20260506041503 | 61 | 339 | 2.0 | 2.0 | 0.00 | 0.03 | 0.03 | 80 | 1017.3 |
| 20260506040959 | 62 | 164 | 0.0 | 1.0 | 0.00 | 0.03 | 0.03 | 80 | 1017.2 |
| 20260506040457 | 62 | 101 | 1.0 | 1.0 | 0.00 | 0.03 | 0.03 | 80 | 1017.1 |
| 20260506035952 | 62 | 121 | 1.0 | 1.0 | 0.00 | 0.03 | 0.03 | 80 | 1017.4 |
| 20260506035450 | 62 | 176 | 1.0 | 1.0 | 0.00 | 0.03 | 0.03 | 80 | 1017.1 |
| 20260506034946 | 62 | 180 | 2.0 | 2.0 | 0.00 | 0.03 | 0.03 | 79 | 1017.3 |
| 20260506034444 | 63 | 136 | 1.0 | 2.0 | 0.00 | 0.03 | 0.03 | 80 | 1017.2 |
| 20260506033940 | 63 | 125 | 0.0 | 1.0 | 0.00 | 0.03 | 0.03 | 81 | 1016.9 |
| 20260506033438 | 63 | 142 | 0.0 | 1.0 | 0.00 | 0.03 | 0.03 | 81 | 1016.9 |
| 20260506032934 | 63 | 111 | 0.0 | 0.0 | 0.00 | 0.03 | 0.03 | 81 | 1016.7 |
| 20260506032432 | 63 | 117 | 0.0 | 0.0 | 0.00 | 0.03 | 0.03 | 81 | 1016.6 |
| 20260506031928 | 63 | 108 | 0.0 | 0.0 | 0.00 | 0.03 | 0.03 | 81 | 1016.7 |
| 20260506031426 | 63 | 110 | 0.0 | 0.0 | 0.00 | 0.03 | 0.03 | 81 | 1016.3 |
| 20260506030923 | 63 | 108 | 0.0 | 0.0 | 0.00 | 0.03 | 0.03 | 80 | 1016.4 |
| 20260506030421 | 63 | 86 | 0.0 | 1.0 | 0.00 | 0.03 | 0.03 | 80 | 1016.6 |
| 20260506025918 | 63 | 103 | 0.0 | 0.0 | 0.00 | 0.03 | 0.03 | 80 | 1016.3 |
| 20260506025415 | 63 | 99 | 0.0 | 0.0 | 0.00 | 0.03 | 0.03 | 80 | 1016.2 |
| 20260506024911 | 63 | 109 | 0.0 | 1.0 | 0.00 | 0.03 | 0.03 | 79 | 1016.2 |
| 20260506024408 | 64 | 116 | 0.0 | 0.0 | 0.00 | 0.03 | 0.03 | 78 | 1016.2 |
| 20260506023904 | 64 | 91 | 0.0 | 0.0 | 0.00 | 0.03 | 0.03 | 78 | 1016.1 |
| 20260506023401 | 64 | 155 | 0.0 | 1.0 | 0.00 | 0.03 | 0.03 | 78 | 1016.1 |
| 20260506022858 | 64 | 108 | 1.0 | 2.0 | 0.00 | 0.03 | 0.03 | 78 | 1016.0 |
| 20260506022356 | 64 | 107 | 0.0 | 0.0 | 0.00 | 0.03 | 0.03 | 78 | 1015.7 |
| 20260506021853 | 64 | 125 | 0.0 | 0.0 | 0.00 | 0.03 | 0.03 | 78 | 1016.1 |
| 20260506021350 | 64 | 97 | 1.0 | 2.0 | 0.00 | 0.03 | 0.03 | 78 | 1016.0 |
| 20260506020847 | 65 | 106 | 1.0 | 1.0 | 0.00 | 0.03 | 0.03 | 77 | 1015.8 |
| 20260506020345 | 65 | 130 | 0.0 | 0.0 | 0.00 | 0.03 | 0.03 | 77 | 1015.8 |
| 20260506015842 | 65 | 99 | 0.0 | 1.0 | 0.00 | 0.03 | 0.03 | 76 | 1016.0 |
| 20260506015339 | 65 | 112 | 0.0 | 1.0 | 0.00 | 0.03 | 0.03 | 76 | 1016.2 |
| 20260506014836 | 65 | 105 | 1.0 | 2.0 | 0.00 | 0.03 | 0.03 | 76 | 1015.7 |
| 20260506014333 | 65 | 90 | 1.0 | 1.0 | 0.00 | 0.03 | 0.03 | 75 | 1015.9 |
| 20260506013829 | 65 | 153 | 1.0 | 1.0 | 0.00 | 0.03 | 0.03 | 74 | 1015.9 |
| 20260506013327 | 65 | 108 | 1.0 | 1.0 | 0.00 | 0.03 | 0.03 | 73 | 1015.8 |
| 20260506012823 | 65 | 128 | 1.0 | 2.0 | 0.00 | 0.03 | 0.03 | 72 | 1015.9 |
| 20260506012321 | 66 | 102 | 0.0 | 1.0 | 0.00 | 0.03 | 0.03 | 72 | 1015.6 |
| 20260506011818 | 66 | 91 | 0.0 | 1.0 | 0.00 | 0.03 | 0.03 | 74 | 1015.8 |
| 20260506011314 | 66 | 102 | 0.0 | 1.0 | 0.00 | 0.03 | 0.03 | 73 | 1015.7 |
| 20260506010812 | 66 | 96 | 0.0 | 0.0 | 0.00 | 0.03 | 0.03 | 73 | 1015.6 |
| 20260506010310 | 66 | 97 | 0.0 | 0.0 | 0.00 | 0.03 | 0.03 | 74 | 1015.7 |
| 20260506005806 | 65 | 106 | 0.0 | 0.0 | 0.00 | 0.03 | 0.03 | 74 | 1015.7 |
| 20260506005305 | 65 | 101 | 0.0 | 1.0 | 0.00 | 0.03 | 0.03 | 74 | 1015.5 |
| 20260506004759 | 65 | 120 | 1.0 | 1.0 | 0.00 | 0.03 | 0.03 | 75 | 1015.5 |
| 20260506004257 | 65 | 110 | 3.0 | 3.0 | 0.00 | 0.03 | 0.03 | 75 | 1015.7 |
| 20260506003753 | 65 | 127 | 1.0 | 1.0 | 0.00 | 0.03 | 0.03 | 75 | 1015.6 |
| 20260506003249 | 65 | 112 | 1.0 | 1.0 | 0.00 | 0.03 | 0.03 | 75 | 1015.4 |
| 20260506002745 | 65 | 114 | 1.0 | 1.0 | 0.00 | 0.03 | 0.03 | 75 | 1015.7 |
| 20260506002242 | 65 | 73 | 2.0 | 2.0 | 0.00 | 0.03 | 0.03 | 75 | 1015.6 |
| 20260506001738 | 65 | 115 | 1.0 | 1.0 | 0.00 | 0.03 | 0.03 | 75 | 1015.5 |
| 20260506001235 | 65 | 112 | 2.0 | 2.0 | 0.00 | 0.03 | 0.03 | 74 | 1015.5 |
| 20260506000732 | 66 | 107 | 2.0 | 3.0 | 0.00 | 0.03 | 0.03 | 74 | 1015.4 |
| 20260506000230 | 66 | 116 | 1.0 | 1.0 | 0.00 | 0.03 | 0.03 | 74 | 1015.5 |
| 20260505235726 | 66 | 117 | 1.0 | 1.0 | 0.00 | 0.03 | 0.03 | 74 | 1015.4 |
| 20260505235224 | 66 | 125 | 1.0 | 1.0 | 0.00 | 0.03 | 0.03 | 74 | 1015.6 |
| 20260505234721 | 66 | 114 | 0.0 | 0.0 | 0.00 | 0.03 | 0.03 | 74 | 1015.5 |
| 20260505234218 | 66 | 114 | 1.0 | 1.0 | 0.00 | 0.03 | 0.03 | 74 | 1015.5 |
| 20260505233714 | 65 | 49 | 1.0 | 1.0 | 0.00 | 0.03 | 0.03 | 74 | 1015.2 |
| 20260505233213 | 66 | 103 | 1.0 | 2.0 | 0.00 | 0.03 | 0.03 | 74 | 1015.4 |
| 20260505232710 | 66 | 90 | 1.0 | 2.0 | 0.00 | 0.03 | 0.03 | 74 | 1015.5 |
| 20260505232207 | 66 | 78 | 1.0 | 2.0 | 0.00 | 0.03 | 0.03 | 73 | 1015.3 |
| 20260505231704 | 66 | 123 | 1.0 | 2.0 | 0.00 | 0.03 | 0.03 | 75 | 1015.5 |
| 20260505231203 | 66 | 323 | 2.0 | 3.0 | 0.00 | 0.03 | 0.03 | 73 | 1015.5 |
| 20260505230701 | 66 | 151 | 2.0 | 2.0 | 0.00 | 0.03 | 0.03 | 73 | 1015.5 |
| 20260505230157 | 66 | 311 | 0.0 | 1.0 | 0.00 | 0.03 | 0.03 | 74 | 1015.4 |
| 20260505225653 | 66 | 160 | 1.0 | 2.0 | 0.00 | 0.03 | 0.03 | 74 | 1015.6 |
| 20260505225150 | 66 | 96 | 0.0 | 0.0 | 0.00 | 0.03 | 0.03 | 73 | 1015.4 |
| 20260505224645 | 68 | 206 | 2.0 | 2.0 | 0.00 | 0.03 | 0.03 | 71 | 1015.6 |
| 20260505224144 | 66 | 112 | 0.0 | 0.0 | 0.00 | 0.03 | 0.03 | 74 | 1015.6 |
| 20260505223641 | 67 | 67 | 1.0 | 1.0 | 0.00 | 0.03 | 0.03 | 72 | 1015.6 |
| 20260505223136 | 68 | 99 | 0.0 | 0.0 | 0.00 | 0.03 | 0.03 | 72 | 1015.6 |
| 20260505222633 | 67 | 85 | 1.0 | 1.0 | 0.00 | 0.03 | 0.03 | 72 | 1015.9 |
| 20260505222129 | 67 | 140 | 1.0 | 1.0 | 0.00 | 0.03 | 0.03 | 71 | 1015.7 |
| 20260505221626 | 66 | 117 | 1.0 | 1.0 | 0.00 | 0.03 | 0.03 | 73 | 1015.9 |
| 20260505221123 | 67 | 123 | 1.0 | 1.0 | 0.00 | 0.03 | 0.03 | 70 | 1016.0 |
| 20260505220621 | 67 | 97 | 1.0 | 1.0 | 0.00 | 0.03 | 0.03 | 72 | 1016.0 |
| 20260505220118 | 68 | 136 | 2.0 | 2.0 | 0.00 | 0.03 | 0.03 | 71 | 1016.1 |
| 20260505215615 | 67 | 98 | 0.0 | 0.0 | 0.00 | 0.03 | 0.03 | 72 | 1015.9 |
| 20260505215113 | 67 | 98 | 1.0 | 1.0 | 0.00 | 0.03 | 0.03 | 73 | 1016.2 |
| 20260505214611 | 68 | 99 | 0.0 | 1.0 | 0.00 | 0.03 | 0.03 | 71 | 1015.9 |
| 20260505214108 | 66 | 119 | 0.0 | 0.0 | 0.00 | 0.03 | 0.03 | 74 | 1016.0 |
| 20260505213606 | 66 | 97 | 0.0 | 0.0 | 0.00 | 0.03 | 0.03 | 74 | 1016.1 |
| 20260505213102 | 65 | 131 | 1.0 | 1.0 | 0.00 | 0.03 | 0.03 | 76 | 1016.0 |
| 20260505212558 | 65 | 115 | 0.0 | 0.0 | 0.00 | 0.03 | 0.03 | 75 | 1015.8 |
| 20260505212056 | 64 | 111 | 0.0 | 0.0 | 0.00 | 0.03 | 0.03 | 78 | 1016.0 |
| 20260505211552 | 64 | 109 | 1.0 | 1.0 | 0.00 | 0.03 | 0.03 | 77 | 1016.3 |
| 20260505211049 | 64 | 131 | 1.0 | 1.0 | 0.00 | 0.03 | 0.03 | 79 | 1016.3 |
| 20260505210546 | 63 | 110 | 1.0 | 1.0 | 0.00 | 0.03 | 0.03 | 81 | 1016.3 |
| 20260505210043 | 63 | 201 | 1.0 | 1.0 | 0.00 | 0.03 | 0.03 | 81 | 1016.1 |
| 20260505205541 | 62 | 171 | 2.0 | 3.0 | 0.00 | 0.03 | 0.03 | 81 | 1016.1 |
| 20260505205038 | 62 | 118 | 0.0 | 1.0 | 0.00 | 0.03 | 0.03 | 82 | 1016.5 |
| 20260505204536 | 62 | 116 | 0.0 | 0.0 | 0.00 | 0.03 | 0.03 | 82 | 1016.4 |
| 20260505204033 | 62 | 131 | 0.0 | 0.0 | 0.00 | 0.03 | 0.03 | 82 | 1016.5 |
| 20260505203529 | 62 | 113 | 0.0 | 0.0 | 0.00 | 0.03 | 0.03 | 83 | 1016.3 |
| 20260505203027 | 62 | 108 | 0.0 | 0.0 | 0.00 | 0.03 | 0.03 | 83 | 1016.1 |
| 20260505202522 | 62 | 103 | 0.0 | 0.0 | 0.00 | 0.03 | 0.03 | 83 | 1016.4 |
| 20260505202018 | 62 | 138 | 2.0 | 2.0 | 0.00 | 0.03 | 0.03 | 83 | 1016.2 |
| 20260505201516 | 62 | 96 | 0.0 | 1.0 | 0.00 | 0.03 | 0.03 | 82 | 1016.4 |
| 20260505201013 | 62 | 173 | 1.0 | 1.0 | 0.00 | 0.03 | 0.03 | 82 | 1016.4 |
| 20260505200511 | 62 | 105 | 1.0 | 2.0 | 0.00 | 0.03 | 0.03 | 84 | 1016.3 |
| 20260505200007 | 62 | 69 | 1.0 | 2.0 | 0.00 | 0.03 | 0.03 | 82 | 1016.4 |
| 20260505195504 | 62 | 117 | 0.0 | 0.0 | 0.00 | 0.03 | 0.03 | 82 | 1016.6 |
| 20260505195001 | 62 | 152 | 0.0 | 1.0 | 0.00 | 0.03 | 0.03 | 83 | 1016.5 |
| 20260505194459 | 62 | 104 | 1.0 | 1.0 | 0.00 | 0.03 | 0.03 | 82 | 1016.5 |
| 20260505193958 | 62 | 298 | 2.0 | 3.0 | 0.00 | 0.03 | 0.03 | 82 | 1016.6 |
| 20260505193456 | 63 | 99 | 1.0 | 2.0 | 0.00 | 0.03 | 0.03 | 80 | 1016.4 |
| 20260505192953 | 63 | 134 | 1.0 | 1.0 | 0.00 | 0.03 | 0.03 | 77 | 1016.4 |
| 20260505192452 | 63 | 90 | 0.0 | 1.0 | 0.00 | 0.03 | 0.03 | 77 | 1016.2 |
| 20260505191949 | 64 | 110 | 0.0 | 0.0 | 0.00 | 0.03 | 0.03 | 78 | 1016.5 |
| 20260505191448 | 65 | 187 | 1.0 | 2.0 | 0.00 | 0.03 | 0.03 | 77 | 1016.3 |
| 20260505190944 | 64 | 106 | 0.0 | 0.0 | 0.00 | 0.03 | 0.03 | 79 | 1016.3 |
| 20260505190439 | 63 | 104 | 1.0 | 1.0 | 0.00 | 0.03 | 0.03 | 78 | 1016.5 |
| 20260505185935 | 63 | 101 | 1.0 | 1.0 | 0.00 | 0.03 | 0.03 | 78 | 1016.5 |
| 20260505185432 | 63 | 89 | 0.0 | 0.0 | 0.00 | 0.03 | 0.03 | 80 | 1016.4 |
| 20260505184928 | 64 | 167 | 1.0 | 2.0 | 0.00 | 0.03 | 0.03 | 78 | 1016.6 |
| 20260505184426 | 63 | 109 | 0.0 | 0.0 | 0.00 | 0.03 | 0.03 | 80 | 1016.3 |
| 20260505183922 | 62 | 195 | 1.0 | 2.0 | 0.00 | 0.03 | 0.03 | 79 | 1016.6 |
| 20260505183419 | 62 | 125 | 0.0 | 1.0 | 0.00 | 0.03 | 0.03 | 81 | 1016.5 |
| 20260505182916 | 61 | 122 | 0.0 | 0.0 | 0.00 | 0.03 | 0.03 | 81 | 1016.2 |
| 20260505182413 | 61 | 110 | 0.0 | 0.0 | 0.00 | 0.03 | 0.03 | 82 | 1016.6 |
| 20260505181909 | 61 | 100 | 0.0 | 0.0 | 0.00 | 0.03 | 0.03 | 84 | 1016.4 |
| 20260505181407 | 60 | 55 | 1.0 | 1.0 | 0.00 | 0.03 | 0.03 | 84 | 1016.3 |
| 20260505180903 | 60 | 94 | 0.0 | 1.0 | 0.00 | 0.03 | 0.03 | 85 | 1016.4 |
| 20260505180400 | 59 | 167 | 1.0 | 2.0 | 0.00 | 0.03 | 0.03 | 85 | 1016.3 |
| 20260505175856 | 60 | 129 | 1.0 | 2.0 | 0.00 | 0.03 | 0.03 | 85 | 1016.3 |
| 20260505175353 | 59 | 153 | 1.0 | 1.0 | 0.00 | 0.03 | 0.03 | 86 | 1016.4 |
| 20260505174849 | 59 | 144 | 0.0 | 1.0 | 0.00 | 0.03 | 0.03 | 89 | 1016.2 |
| 20260505174347 | 58 | 112 | 0.0 | 1.0 | 0.00 | 0.03 | 0.03 | 90 | 1016.2 |
| 20260505173843 | 58 | 100 | 0.0 | 0.0 | 0.00 | 0.03 | 0.03 | 93 | 1016.3 |
| 20260505173339 | 57 | 101 | 0.0 | 0.0 | 0.00 | 0.03 | 0.03 | 96 | 1016.3 |
| 20260505172836 | 57 | 104 | 0.0 | 0.0 | 0.00 | 0.03 | 0.03 | 98 | 1016.2 |
| 20260505172334 | 55 | 104 | 0.0 | 0.0 | 0.00 | 0.03 | 0.03 | 99 | 1016.5 |
| 20260505171834 | 56 | 82 | 0.0 | 0.0 | 0.00 | 0.03 | 0.03 | 99 | 1016.1 |
| 20260505171331 | 56 | 116 | 0.0 | 0.0 | 0.00 | 0.03 | 0.03 | 99 | 1016.4 |
| 20260505170827 | 55 | 123 | 0.0 | 0.0 | 0.00 | 0.03 | 0.03 | 99 | 1016.2 |
| 20260505170324 | 55 | 87 | 1.0 | 1.0 | 0.00 | 0.03 | 0.03 | 99 | 1016.3 |
| 20260505165819 | 56 | 113 | 1.0 | 1.0 | 0.00 | 0.03 | 0.03 | 99 | 1016.0 |
| 20260505165315 | 56 | 98 | 0.0 | 0.0 | 0.00 | 0.03 | 0.03 | 99 | 1016.2 |
| 20260505164811 | 55 | 110 | 0.0 | 0.0 | 0.00 | 0.03 | 0.03 | 99 | 1016.3 |
| 20260505164308 | 56 | 98 | 0.0 | 0.0 | 0.00 | 0.03 | 0.03 | 99 | 1016.0 |
| 20260505163806 | 55 | 96 | 0.0 | 0.0 | 0.00 | 0.03 | 0.03 | 99 | 1016.2 |
| 20260505163305 | 55 | 100 | 0.0 | 1.0 | 0.00 | 0.03 | 0.03 | 99 | 1016.1 |
| 20260505162803 | 55 | 101 | 0.0 | 0.0 | 0.00 | 0.03 | 0.03 | 99 | 1016.3 |
| 20260505162259 | 55 | 97 | 0.0 | 0.0 | 0.00 | 0.03 | 0.03 | 99 | 1015.9 |
| 20260505161756 | 55 | 98 | 0.0 | 0.0 | 0.00 | 0.03 | 0.03 | 99 | 1016.3 |
| 20260505161253 | 55 | 92 | 0.0 | 0.0 | 0.00 | 0.03 | 0.03 | 99 | 1016.0 |
| 20260505160750 | 55 | 98 | 0.0 | 0.0 | 0.00 | 0.03 | 0.03 | 99 | 1016.1 |
| 20260505160248 | 55 | 105 | 0.0 | 0.0 | 0.00 | 0.03 | 0.03 | 99 | 1016.1 |